This is the latest recevied weather packets stored in our database for station/object K8FJG-13. If no packets are shown the sender has not sent any weather packets the latest 10 day(s).
| Time | Temp. | Humidity | Pressure | Rain* | Wind** | Luminosity | Snow |
|---|---|---|---|---|---|---|---|
| 1777094997 | 13.89° C | 94% | 963.9 hPa | - | - | - | - |
| 1777094394 | 13.33° C | 94% | 964 hPa | - | - | - | - |
| 1777093791 | 13.33° C | 94% | 964 hPa | - | - | - | - |
| 1777093187 | 13.33° C | 94% | 963.9 hPa | - | - | - | - |
| 1777092584 | 13.33° C | 93% | 964 hPa | - | - | - | - |
| 1777091981 | 13.33° C | 93% | 964.2 hPa | - | - | - | - |
| 1777091378 | 13.89° C | 93% | 964.4 hPa | - | - | - | - |
| 1777090775 | 13.89° C | 93% | 964.4 hPa | - | - | - | - |
| 1777090172 | 13.89° C | 92% | 964.5 hPa | - | - | - | - |
| 1777089569 | 13.89° C | 91% | 964.7 hPa | - | - | - | - |
| 1777088966 | 13.89° C | 91% | 964.9 hPa | - | - | - | - |
| 1777088363 | 13.89° C | 90% | 965 hPa | - | - | - | - |
| 1777087759 | 13.89° C | 90% | 965 hPa | - | - | - | - |
| 1777087156 | 14.44° C | 89% | 965 hPa | - | - | - | - |
| 1777086553 | 14.44° C | 88% | 964.9 hPa | - | - | - | - |
| 1777085950 | 15° C | 87% | 964.8 hPa | - | - | - | - |
| 1777085347 | 15.56° C | 86% | 964.6 hPa | - | - | - | - |
| 1777084743 | 16.11° C | 83% | 964.5 hPa | - | - | - | - |
| 1777084140 | 16.67° C | 78% | 964.7 hPa | - | - | - | - |
| 1777083537 | 16.67° C | 75% | 964.6 hPa | - | - | - | - |
| 1777082934 | 16.67° C | 74% | 964.5 hPa | - | - | - | - |
| 1777082331 | 16.67° C | 73% | 964.4 hPa | - | - | - | - |
| 1777081728 | 16.67° C | 72% | 964.2 hPa | - | - | - | - |
| 1777081124 | 16.67° C | 73% | 964.2 hPa | - | - | - | - |
| 1777080521 | 16.67° C | 76% | 964.2 hPa | - | - | - | - |
* Rain since midnight (hover to see other rain measurements)
** Current wind speed in m/s (hover to see current wind gust speed)